User: anonymous   Login
Location: Unspecified
(0.0000°N, 0.0000°E)
Time: 22:24:55
(UTC+00:00)
Language:

QPS-SAR-5 TSUKUYOMI-I - Orbit

View from above orbital plane
View from above orbital plane
View from above satellite
View from above satellite

Ground track
Ground track

The orbit is defined by the following mean orbital elements,

1 58578U          26145.47046786 +.00000000 +00000-0 +52797-3 0 00009
2 58578  42.0087 145.2159 0024451 131.7398 228.5531 15.21989244    02
Epoch (UTC): 25 May 2026 11:17:28
Eccentricity: 0.0024451
inclination: 42.0087°
perigee height: 483 km
apogee height: 517 km
right ascension of ascending node: 145.2159°
argument of perigee: 131.7398°
revolutions per day: 15.21989244
mean anomaly at epoch: 228.5531°

The dashed part of the orbit path shows where the satellite is in the earth's shadow,  

DLR